Location: Fontenay-Trésigny
(48.7065°N, 2.8705°E)
Time: 21:16:34
(UTC+00:00)

Daily predictions for brighter satellites

Satellite Brightness Start Highest point End
(mag) Time Altitude Azimuth Time Altitude Azimuth Time Altitude Azimuth
Cosmos 2322 Rocket 3.5 20:28:52 10° NW 20:34:02 37° WSW 20:39:11 10° S
Meteor 1-16 Rocket 4.5 20:29:21 10° N 20:35:18 67° ENE 20:41:07 10° SSE
Cosmos 1570 Rocket 4.4 20:31:25 10° NNW 20:36:41 54° ENE 20:41:55 10° SE
Cosmos 2297 Rocket 3.7 20:38:52 10° SE 20:42:24 17° E 20:45:56 10° ENE
Aureole 3 4.0 20:38:57 10° S 20:43:32 70° E 20:49:18 10° NNE
Cosmos 1707 Rocket 3.7 20:39:24 10° SSW 20:43:50 82° W 20:48:16 10° N
Cosmos 1356 Rocket 3.9 20:39:47 10° SSW 20:43:57 66° WNW 20:48:08 10° N
Cosmos 1758 4.3 20:41:11 10° NNW 20:44:58 46° W 20:48:45 10° SSW
Cosmos 2219 Rocket 2.6 20:43:41 10° NNW 20:49:19 65° WSW 20:54:56 10° SSE
ATLAS CENTAUR R/B 4.1 20:49:44 10° W 20:52:33 22° NW 20:55:28 10° NNE
BREEZE-M DEB (TANK) 3.6 20:48:50 10° WSW 20:52:39 81° SSE 21:07:02 10° ENE
ATLAS 2AS CENTAUR R/B 3.8 20:48:25 10° NW 20:54:29 36° WSW 21:00:24 10° S
Landsat 4 3.8 20:52:04 10° SSE 20:55:23 52° ENE 20:58:45 10° N
Cosmos 1733 Rocket 3.9 20:53:01 10° NNW 20:57:19 51° W 21:01:36 10° S
NOSS 5 (C) 4.3 20:56:05 10° NW 20:59:14 72° SW 21:02:10 12° SSE
Cosmos 1455 2.1 20:56:12 10° N 20:59:41 59° ENE 21:02:59 11° SSE
Spot 2 Rocket 3.5 20:57:08 10° SSE 21:02:13 86° ENE 21:07:21 10° NNW
Cosmos 1408 4.1 21:01:32 11° ESE 21:03:01 14° E 21:04:43 10° NE
SPOT 3 Rocket 3.6 20:59:04 10° SSE 21:04:12 78° ENE 21:09:25 10° NNW
Iridium 51 4.4 21:06:05 10° S 21:10:19 78° E 21:14:20 10° N
Meteor 2-20 Rocket 4.5 21:04:57 10° N 21:11:08 85° W 21:17:02 10° S
SeaSat 1 2.5 21:08:35 12° SE 21:13:09 82° ENE 21:18:07 10° NNW
Cosmos 2360 Rocket 4.2 21:14:27 10° NW 21:18:38 22° W 21:22:48 10° SSW
Cosmos 158 Rocket 4.0 21:13:41 10° NNW 21:18:59 84° ENE 21:23:25 14° SSE
Cosmos 1953 2.3 21:15:18 10° NNW 21:19:07 74° W 21:22:42 11° S
Cosmos 1908 Rocket 3.5 21:15:02 10° N 21:19:23 89° WSW 21:23:22 12° S
COSMOS 2428 2.8 21:14:14 10° NNW 21:19:56 77° WSW 21:25:01 13° SSE
Cosmos 2208 Rocket 4.0 21:15:23 10° NNW 21:20:36 89° ENE 21:25:05 14° SSE
NOSS 8 (H) 4.4 21:16:46 10° SSW 21:20:37 60° SE 21:23:40 10° NE
Cosmos 1782 Rocket 3.8 21:19:03 10° N 21:23:19 54° ENE 21:26:41 16° SSE
CENTAUR R/B 3.7 21:23:46 14° SE 21:26:47 21° ESE 21:31:27 10° ENE
Ariane Rocket 3.4 21:22:37 10° S 21:27:39 63° WSW 21:32:43 10° NNW
Cosmos 1300 Rocket 3.9 21:24:27 10° N 21:28:40 51° ENE 21:31:51 17° SSE
EXPRESS MD2 1.9 21:26:51 10° WNW 21:29:26 86° NNE 21:30:59 17° ESE
Cosmos 2084 Rocket 3.7 21:27:38 10° SSW 21:31:44 44° SE 21:35:43 10° NE
Cosmos 1486 Rocket 4.0 21:32:18 10° S 21:37:24 62° ESE 21:42:34 10° NNE
Cosmos 1315 Rocket 4.0 21:35:02 10° SW 21:38:50 43° WNW 21:42:41 10° N
Cosmos 405 Rocket 4.2 21:38:26 10° NNE 21:41:38 25° ENE 21:43:50 15° ESE
GP-B 3.2 21:39:36 10° N 21:43:59 60° E 21:47:06 19° SSE
MetOp-A 4.0 21:40:03 16° SSE 21:44:19 89° ENE 21:49:29 10° NNW
BREEZE-M DEB (TANK) 3.4 21:39:18 10° W 21:44:32 42° N 21:46:48 10° ENE
ARIANE 5 R/B 3.6 21:41:49 16° SE 21:44:47 36° ENE 21:48:47 10° N
SJ 16-02 3.8 21:42:36 10° WSW 21:46:05 23° NW 21:49:35 10° N
NOSS 0 Rocket 4.1 21:40:01 10° NNW 21:46:16 73° WSW 21:51:08 17° SSE
BlueWalker 3 2.9 21:44:12 10° W 21:47:51 48° NNW 21:51:30 10° ENE
Cosmos 371 Rocket 3.3 21:43:57 10° SSW 21:48:42 68° ESE 21:53:31 10° NNE
SL-4 R/B 3.2 21:46:13 10° W 21:49:33 27° SW 21:51:26 19° S
USA 234 3.3 21:44:05 10° ENE 21:50:30 55° SE 21:56:53 10° SW
Terra 3.4 21:48:51 10° SSW 21:52:57 29° W 21:57:04 10° NW
Spot 1 4.4 21:50:53 10° NNE 21:55:38 83° WNW 22:00:36 10° SSW
Cosmos 1354 Rocket 4.4 21:55:11 18° S 21:58:50 46° ESE 22:03:53 10° NNE
H-2A R/B 3.9 21:56:27 15° ESE 21:59:09 27° ENE 22:02:42 10° N
SL-16 R/B 3.4 21:54:04 10° NNW 21:59:17 35° NE 22:04:11 11° ESE
Cosmos 2237 Rocket 2.2 21:55:22 10° NNW 22:01:04 88° WSW 22:05:00 21° SSE
Landsat 5 3.7 21:57:00 10° N 22:01:08 72° WNW 22:05:09 11° SSW
COSMOS 2455 3.0 21:57:53 10° SW 22:03:55 79° NW 22:10:00 10° NNE
Cosmos 1242 Rocket 4.3 22:02:35 10° WSW 22:04:44 21° WNW 22:06:54 10° NNW
Cosmos 1745 Rocket 4.1 21:58:43 12° S 22:04:45 87° W 22:11:10 10° N
USA 281 3.6 22:00:04 15° SE 22:05:25 57° NE 22:11:50 10° NNW
CZ-4C R/B 2.0 22:01:33 10° SW 22:06:07 79° NW 22:11:56 10° NE
Cosmos 2227 Rocket 2.7 22:03:20 20° SSE 22:06:46 40° ESE 22:12:02 10° NE
Nadezhda 1 Rocket 4.2 22:01:53 10° NNW 22:08:04 66° W 22:13:03 16° S
Meteor 2-5 Rocket 4.0 22:05:17 20° SSE 22:09:20 56° E 22:14:58 10° NNE
Cosmos 2151 Rocket 4.4 22:07:40 10° N 22:11:46 38° ENE 22:14:08 21° SE
Cosmos 773 Rocket 4.2 22:09:37 10° NNW 22:14:44 63° WSW 22:18:03 22° S
Cosmos 1980 3.9 22:09:56 10° NNW 22:15:33 66° WSW 22:19:14 22° S
Okean 2 Rocket 4.0 22:12:15 10° N 22:16:29 39° ENE 22:18:55 22° SE
Cosmos 304 Rocket 3.8 22:13:18 11° SSW 22:17:53 80° WNW 22:22:41 10° NNE
Cosmos 2297 Rocket 2.2 22:20:01 10° SSW 22:25:40 84° WNW 22:31:23 10° NNE
ALOS 2 3.7 22:25:43 19° ESE 22:28:13 35° ENE 22:32:12 10° N
MINOTAUR 4 R/B 3.8 22:28:09 10° NNE 22:30:59 50° ESE 22:31:27 44° SE
CZ-2C R/B 3.6 22:29:54 10° NNE 22:34:22 90° E 22:37:07 23° SSW
Cosmos 1461 4.2 22:34:55 20° ESE 22:34:55 20° ESE 22:37:44 10° ENE
Cosmos 1703 3.3 22:33:07 25° SSW 22:35:07 65° W 22:38:48 10° N
Cosmos 2098 Rocket 3.9 22:28:35 10° N 22:35:08 90° NE 22:38:52 24° S
Cosmos 1408 3.8 22:33:29 15° SW 22:35:27 28° WNW 22:38:06 10° NNW
NOSS 3-2 (A) 3.8 22:33:41 26° SSE 22:35:54 37° ESE 22:41:21 10° NE
Cosmos 2181 Rocket 4.0 22:31:50 10° N 22:38:00 74° E 22:41:46 25° SSE
Cosmos 2219 3.7 22:37:54 25° SSE 22:40:30 41° ESE 22:45:43 10° NE
Cosmos 1777 Rocket 4.2 22:39:06 13° SSW 22:43:45 72° WNW 22:49:03 10° NNE
H-2A R/B 4.1 22:42:09 10° ENE 22:44:10 13° E 22:45:13 12° ESE
Cosmos 332 Rocket 3.7 22:41:57 23° SSW 22:45:04 82° ESE 22:49:59 10° NNE
Cosmos 1825 2.3 22:44:58 37° SE 22:45:47 46° E 22:49:04 10° NNE
BREEZE-M DEB (TANK) 3.8 22:42:48 10° W 22:46:04 88° NNE 22:56:27 10° ESE
Cosmos 2263 Rocket 3.0 22:44:09 25° SE 22:46:17 32° ESE 22:51:11 10° NE
Meteor 1-24 Rocket 3.8 22:42:45 19° SSW 22:46:52 77° WNW 22:52:23 10° N
NOSS 3-2 (C) 4.5 22:46:16 19° SE 22:47:27 21° ESE 22:51:42 10° ENE
Cosmos 2221 Rocket 3.8 22:46:44 31° SSE 22:48:38 58° E 22:53:00 10° NNE
SeaSat 1 4.5 22:48:17 11° SW 22:51:08 17° WSW 22:54:17 10° WNW
Sich 1 Rocket 3.5 22:49:43 10° N 22:54:08 89° E 22:56:03 33° S
Okean 1 Rocket 3.3 22:51:14 10° N 22:55:36 61° ENE 22:57:31 31° SSE
Cosmos 1538 Rocket 4.0 22:50:44 10° NNW 22:55:59 79° ENE 22:58:51 28° SSE
PSLV R/B 4.0 22:52:45 10° N 22:56:45 72° WNW 22:58:45 28° SSW
Cosmos 1263 4.1 22:55:05 10° N 22:58:13 69° E 22:58:45 53° SE
Cosmos 1818 3.8 22:55:22 10° NW 23:00:52 69° NE 23:04:38 20° SE
Cosmos 1892 2.4 23:03:07 43° S 23:04:11 88° WNW 23:07:44 10° N
Spot 4 3.8 23:03:31 31° S 23:05:50 77° WSW 23:10:41 10° NNW
Cosmos 1025 Rocket 3.4 23:12:05 33° SE 23:13:35 48° E 23:17:43 10° NNE
Nadezhda 3 Rocket 4.1 23:07:52 10° N 23:14:06 67° ENE 23:17:41 26° SSE
Cosmos 967 Rocket 4.5 23:11:00 20° SSW 23:15:36 75° ESE 23:22:05 10° NE
CENTAUR R/B 2.5 23:10:49 12° SW 23:16:16 85° NW 23:23:31 10° NE
Cosmos 405 Rocket 4.2 23:13:28 10° NNW 23:16:42 27° W 23:18:05 21° SW
Cosmos 1975 Rocket 4.4 23:15:39 23° ESE 23:17:12 28° E 23:21:00 10° NNE
ARIANE 5 R/B 4.1 23:19:17 19° SW 23:21:14 27° W 23:24:58 10° NW
Cosmos 923 Rocket 4.3 23:17:45 10° NNW 23:22:59 61° ENE 23:26:02 24° SE
Cosmos 1455 Rocket 3.5 23:20:25 10° N 23:24:48 53° ENE 23:26:44 30° SE
BlueWalker 3 3.1 23:22:53 10° WNW 23:26:28 42° N 23:30:04 10° E
Cosmos 1328 3.6 23:25:24 42° S 23:26:40 89° E 23:30:33 10° N
Cosmos 1378 Rocket 4.4 23:25:05 23° SW 23:27:28 44° WNW 23:31:44 10° N
Cosmos 1898 Rocket 3.7 23:25:20 32° SSE 23:27:29 54° ESE 23:32:31 10° NNE
Aureole 1 Rocket 3.0 23:26:55 38° S 23:28:23 71° ESE 23:33:28 10° NNE
Cosmos 2184 Rocket 4.0 23:26:26 26° SSW 23:30:15 84° W 23:36:42 10° N
Meteor 1-21 Rocket 4.4 23:27:44 30° SSE 23:30:33 62° E 23:36:06 10° NNE
Cosmos 1674 Rocket 4.2 23:29:17 25° SW 23:31:29 47° WNW 23:35:40 10° N
USA 234 3.7 23:27:09 10° NE 23:33:37 64° NNW 23:40:03 10° WSW
H-2A R/B 3.5 23:32:26 26° SW 23:33:58 34° W 23:37:48 10° NNW
SL-16 R/B 2.7 23:38:07 10° NW 23:43:34 47° WSW 23:46:02 29° SSW
Cosmos 2237 Rocket 4.2 23:41:08 10° WNW 23:44:15 15° W 23:46:48 11° SW
Cosmos 2154 Rocket 4.1 23:45:18 26° SSW 23:48:59 75° W 23:55:19 10° N
USA 281 4.1 23:46:56 23° SSW 23:50:10 35° WSW 23:56:07 10° NW
Cosmos 1943 3.3 23:44:33 10° NNW 23:50:11 71° ENE 23:53:54 22° SE
Cosmos 2227 Rocket 3.3 23:45:31 10° WSW 23:50:49 40° NW 23:56:11 10° NNE
Cosmos 1867 4.4 23:50:22 28° SSE 23:52:10 35° ESE 23:57:06 10° NE
Meteor 2-1 Rocket 4.5 23:47:21 10° N 23:53:14 69° ENE 23:56:34 26° SSE
PSLV R/B 3.5 23:49:06 10° NNE 23:53:18 80° WNW 23:54:55 37° SSW
Cosmos 2082 3.7 23:50:39 26° SSW 23:53:56 86° WNW 23:59:35 10° NNE
